Other Surface Observations
Issued by NWS Tucson, AZ

Home | Current Version | Previous Version | Text Only | Print | Product List | Glossary On
Versions: 1 2 3 4 5 6 7 8 9 10 11 12 13 14 15 16 17 18 19 20 21 22 23 24 25 26 27 28 29 30 31 32 33 34 35 36 37 38 39 40 41 42 43 44 45 46 47 48 49 50
000
SXUS55 KTWC 222215
OSOTWC

WEATHER ROUNDUP FOR SOUTHEAST ARIZONA
NATIONAL WEATHER SERVICE TUCSON AZ
315 PM MST MON DEC 22 2014

AZZ504>506-514-222315-
LOCATION       SKY/WX    TMP DP  RH WIND       PRES   REMARKS
TUCSON         SUNNY     64  39  39 VRB7      29.93F
DAVIS-MONTHAN  SUNNY     63  39  41 W6        29.91F
CHILDRENS PARK N/A       62  39  43 NW4               PIMA CO DEQ
ALVERNON/22ND  N/A      N/A N/A N/A N/A               PIMA CO DEQ
CHERRY/GLENN   N/A      N/A N/A N/A N/A               PIMA CO DEQ
TANGERINE      N/A       62 N/A N/A W4                PIMA CO DEQ
CONTL RANCH    N/A       63  40  43 NW4               PIMA CO DEQ
GRANT/1ST      N/A       62  41  46 NW2               PIMA CO DEQ
CRAYCROFT/22ND N/A      N/A N/A N/A N/A               PIMA CO DEQ
GOLFLINKS/KOLB N/A       62  39  43 W5                PIMA CO DEQ
AJO/12TH       N/A       64  39  40 SW5               PIMA CO DEQ
SAGUARO EAST   N/A      N/A N/A N/A N/A               PIMA CO DEQ
FAIRGROUNDS    N/A       60 N/A N/A W7                PIMA CO DEQ
SAGUARO        N/A       64  39  39 SE4               *SABINO CYN
SAN CARLOS     N/A       62  40  45 S7G10             *SAN CARLOS
GREEN VALLEY   N/A       66  38  35 NE1               PIMA CO DEQ
HORSE CAMP CYN N/A       57  39  50 SW13G19           *ARAVAIPA CYN
RINCON MTNS    N/A       51  31  46 W3G13             *NR MANNING CAMP
$$

AZZ509>511-222315-
LOCATION       SKY/WX    TMP DP  RH WIND       PRES   REMARKS
SAFFORD        SUNNY     64  37  36 NW16G25   29.84S
STRAY HORSE    N/A       55  22  28 W10G24            *
TRAIL CABIN    N/A       59  33  38 W8G17             *N OF GRANVILLE
BLACK HILLS    N/A       61  38  42 NW17G24           *N OF FT THOMAS
DRY LAKE       N/A       51  31  47 W7G17             *NATANES MTNS
NOON CREEK     N/A       56  39  53 NE7G10            *PINALENO MTNS
COLUMBINE      N/A       51  21  30 SW6G19            *PINALENO MTNS
GUTHRIE        N/A       49  33  54 W25G35            *SW OF GUTHRIE
$$

AZZ502-503-513-222315-
LOCATION       SKY/WX    TMP DP  RH WIND       PRES   REMARKS
NOGALES        SUNNY     66  35  31 NW10      29.94F
SELLS          N/A       66  39  37 W6                *
SASABE         N/A       68  39  34 NE7G13            *ALTAR VLY
HOPKINS        N/A       54  30  39 N11G23            *SANTA RITA MTNS
CARR CYN       N/A       60  36  40 SE3               *W OF HEREFORD
$$

AZZ507-508-512-222315-
LOCATION       SKY/WX    TMP DP  RH WIND       PRES   REMARKS
SIERRA VISTA   SUNNY     63  34  34 W21G29    29.93F
DOUGLAS        SUNNY     67  34  29 SW9       29.89F
EMPIRE MTNS    N/A       60  34  38 NW12G22           *LAS CIENEGAS NCA
MULESHOE RANCH N/A       59  38  46 NW11G19           *PRESERVE
HEADQUARTERS   N/A       59  34  39 W8G15             *CHIRICAHUA MTNS
$$

.............................NOTES.............................
THIS IS AN AUTOMATED COLLECTIVE WITH MINIMAL QUALITY CONTROL.
PIMA CO DEQ SITES HAVE NONSTANDARD WIND SENSOR HEIGHTS.
PIMA CO DEQ SITES DO NOT REPORT WIND GUSTS.
* INDICATES WIND SENSORS LOCATED AT 20 FEET INSTEAD OF 33 FEET.
..............................KEY..............................
SKY/WX - SKY CONDITION/WEATHER
TMP    - TEMPERATURE IN FAHRENHEIT
DP     - DEWPOINT IN FAHRENHEIT
RH     - RELATIVE HUMIDITY IN PERCENT
WIND   - DIRECTION AND SPEED IN MILES PER HOUR (MPH)
VRB    - VARIABLE WIND DIRECTION
PRES   - MEAN SEA LEVEL PRESSURE IN INCHES OF MERCURY
         F - FALLING PRESSURE   R - RISING PRESSURE
         S - STEADY PRESSURE
VSB    - VISIBILITY IN MILES
HX     - HEAT INDEX IN FAHRENHEIT
WCI    - WIND CHILL INDEX IN FAHRENHEIT
N/A    - NOT AVAILABLE
AFB    - AIR FORCE BASE
         DAVIS-MONTHAN IS DAVIS-MONTHAN AIR FORCE BASE
CYN    - CANYON
MTNS   - MOUNTAINS
NCA    - NATIONAL CONSERVATION AREA
NR     - NEAR
VLY    - VALLEY
CONTL  - CONTINENTAL
PIMA CO DEQ - PIMA COUNTY DEPT OF ENVIRONMENTAL QUALITY



USA.gov is the U.S. government's official web portal to all federal, state and local government web resources and services.